#timestamp,LO_Frequency,Hit,StdDev 
1548500415.2,286047000.2,N
1548500435.1,286047000.5,N
1548500436.0,286047000.5,N
1548500455.8,286047001.8,N
1548500475.6,286047001.4,N
1548500495.5,286047001.6,N
1548500515.3,286047001.7,N
1548500535.2,286047004.0,Y
1548500555.9,286047002.8,P
1548500575.1,286047000.0,N
1548500595.8,286046999.9,N
1548500615.7,286047000.2,N
1548500635.5,286047002.3,N
1548500655.2,286047002.6,N
1548500675.0,286047002.5,N
1548500675.9,286047002.5,N
1548500695.8,286047001.6,N
1548500715.6,286047001.4,N
1548500735.4,286047003.0,N
1548500755.3,286047003.0,N
1548500775.1,286047004.4,Y
1548500795.9,286046998.3,P
1548500815.7,286046999.0,N
1548500835.5,286047000.9,N
1548500855.4,286046999.7,N
1548500875.2,286047000.7,N
1548500895.0,286047000.4,N
1548500895.9,286047000.4,N
1548500915.8,286047000.6,N
1548500935.6,286047000.5,N
1548500955.5,286047000.7,N
1548500975.3,286046999.0,N
1548500995.1,286046998.5,N
1548501015.9,286046998.5,N
1548501035.7,286046999.2,N
1548501055.6,286046999.0,N
1548501075.4,286047001.2,N
1548501095.2,286047000.6,N
1548501115.1,286047000.7,N
1548501116.0,286047000.7,N
1548501135.8,286047000.9,N
1548501155.6,286047000.5,N
1548501175.5,286047002.6,N
1548501195.3,286047001.7,N
1548501215.2,286047001.7,N
1548501235.0,286046999.7,N
1548501235.9,286046999.7,N
1548501255.7,286047002.1,N
1548501275.6,286047001.4,N
1548501295.4,286047004.3,Y
1548501315.3,286047001.8,P
1548501335.1,286047001.8,N
1548501355.8,286047003.5,P
1548501375.7,286047003.8,Y
1548501395.5,286047002.2,P
1548501415.4,286047001.9,P
1548501435.2,286047001.5,P
1548501455.0,286047003.9,Y
1548501455.9,286047003.9,P
1548501475.8,286046998.1,N
1548501495.6,286047000.3,N
1548501515.4,286047000.1,N
1548501535.3,286047001.2,N
1548501555.1,286047000.4,N
1548501575.9,286046999.3,N
1548501595.7,286046998.3,N
1548501615.5,286046998.9,N
1548501635.4,286046999.6,N
1548501655.2,286046997.0,N
1548501675.0,286046999.2,N
1548501676.0,286046999.2,N
1548501695.8,286046999.3,N
1548501715.6,286047001.1,N
1548501735.5,286046999.2,N
1548501755.3,286046999.5,N
1548501775.1,286046996.5,N
1548501795.9,286046996.7,N
1548501815.7,286046997.5,N
1548501835.5,286046998.0,N
1548501855.4,286046999.3,N
1548501875.2,286046998.7,N
1548501895.1,286047000.6,N
1548501896.0,286047000.6,N
1548501915.8,286047001.2,N
1548501935.6,286046998.9,N
1548501955.5,286046996.9,N
1548501975.3,286046997.1,N
1548501995.2,286046998.2,N
1548502015.9,286047001.1,N
1548502035.7,286047001.2,N
1548502055.6,286046998.4,N
1548502075.4,286046998.1,N
1548502095.2,286047000.8,N
1548502115.1,286047001.2,N
1548502116.0,286047001.2,N
1548502135.8,286046998.3,N
1548502155.7,286046998.5,N
1548502175.5,286047001.1,N
1548502195.3,286047001.2,N
1548502215.2,286047000.8,N
1548502235.0,286047001.1,N
1548502235.9,286047001.1,N
1548502255.8,286046996.6,N
1548502275.6,286046997.2,N
1548502295.4,286046995.6,N
1548502315.3,286046995.9,N
1548502335.1,286046997.3,N
1548502355.8,286046997.6,N
1548502375.7,286046995.6,N
1548502395.5,286046995.0,N
1548502415.4,286046998.0,N
1548502435.2,286046997.5,N
1548502455.0,286046995.4,N
1548502455.9,286046995.4,N
1548502475.8,286046995.8,N
1548502495.6,286046996.2,N
1548502515.4,286046993.9,N
1548502535.3,286046994.8,N
1548502555.1,286046994.0,N
1548502575.9,286046993.8,N
1548502595.7,286046996.0,N
1548502615.5,286046995.2,N
1548502635.4,286046995.0,N
1548502655.2,286046997.2,N
1548502675.0,286046999.0,N
1548502675.9,286046999.0,N
1548502695.8,286046997.7,N
1548502715.6,286046995.1,N
1548502735.5,286046995.4,N
1548502755.3,286046995.4,N
1548502775.1,286046995.9,N
1548502795.7,286046995.1,Y
1548502815.6,286046999.0,P
1548502835.4,286046997.0,N
1548502855.2,286046996.7,N
1548502875.1,286046997.2,N
1548502876.0,286046997.2,Y
1548502895.8,286047002.3,P
1548502915.7,286047000.0,N
1548502935.5,286047000.3,N
1548502955.5,286046998.1,N
1548502975.3,286046998.7,N
1548502995.2,286047001.1,N
1548503015.0,286047000.8,N
1548503015.9,286047000.8,N
1548503035.7,286047001.1,N
1548503055.6,286047001.2,N
1548503075.4,286046998.6,N
1548503095.3,286047000.0,N
1548503115.1,286046999.7,N
1548503116.0,286046999.7,N
1548503135.8,286047001.4,N
1548503155.7,286047001.5,N
1548503175.5,286047001.4,N
1548503195.3,286047000.1,N
1548503215.2,286047002.5,N
1548503235.6,286047000.4,N
1548503255.5,286047000.3,N
1548503275.3,286047002.4,N
1548503295.1,286047001.4,N
1548503315.9,286047001.4,N
1548503335.7,286047001.9,N
1548503355.6,286046999.9,N
1548503375.4,286047000.0,N
1548503395.2,286047002.1,N
1548503415.1,286047000.1,N
1548503416.0,286047000.1,N
1548503435.8,286047001.1,N
1548503455.6,286046999.7,N
1548503475.5,286047004.2,Y
1548503495.3,286046998.1,P
1548503515.2,286046996.9,N
1548503535.9,286046995.4,P
1548503555.7,286046994.8,N
1548503575.6,286046992.3,Y
1548503595.4,286046996.1,P
1548503615.3,286046994.0,P
1548503635.1,286046993.6,P
1548503636.0,286046993.6,Y
1548503655.8,286046996.7,P
1548503675.7,286046999.2,N
1548503695.5,286046996.9,N
1548503715.3,286046997.0,N
1548503735.2,286046997.0,N
1548503755.0,286046999.5,N
1548503755.9,286046999.5,N
1548503775.8,286046997.0,N
1548503795.6,286046998.0,N
1548503815.4,286046998.5,N
1548503835.3,286046998.3,N
1548503855.1,286046998.8,N
1548503875.8,286046998.8,N
1548503895.7,286046998.9,N
1548503915.4,286046998.7,N
1548503935.2,286047000.7,N
1548503955.0,286046999.5,N
1548503955.9,286046999.5,N
1548503975.8,286047000.6,N
1548503995.6,286046998.3,N
